SL-8 DEB, 1634

Orbit data source: Space-Track

SL-8 DEB, 1634 is space debris in LEO originally from a launch on Mon, 15 Mar 1965 UTC launched from the Tyuratam Missile And Space Complex (TTMTR). Debris objects in space refer to the collection of defunct objects orbiting the Earth. Examples of debris include non-operational satellites, rocket bodies, and fragments generated from explosions, collisions, or faulty payload assembly.

Loading next visibility...
Identifier
1634, 1965-020ED
Orbit
LEO
Country
Flag of CISCIS
Related business
Manufacturer
Unknown
Mission
Spacecraft
Bus & Motor
Unknown
Mass
Unknown
Launch date (UTC)
1965-03-15 (61 years ago)
Launch vehicle
Unknown
Launch site
Tyuratam Missile And Space Complex (TTMTR)
Object type
Payload
Rocket body
Debris
Shape & HBR
Unknown shape, 0.1 m
Radar Cross Section
Small (<0.1 m²)

Expand to show TLE details & history
Last TLE update: 1 day ago

TLE from 1 day ago
0 SL-8 DEB
1  1634U 65020ED  25304.36289832 -.00000200  00000-0 -17350-3 0  9995
2  1634  56.1546 326.8501 0854706 132.0945 235.5929 12.48477650733903
Epoch: 2025-10-31T08:42Z
TLE epoch observation values (Epoch: 2025-10-31T08:42:34.414Z)
Latitude
-0.00007°
Longitude
156.29825°
Altitude
1,887.327 km
Speed
6.76 km/s
True Right ascension
21h 47m 24s
True Declination
0° 00' 00"
Sunlit
Object was in daylight at epoch
Visualization orbit readout
Latitude
Unknown
Longitude
Unknown
Altitude
Unknown
Speed
Unknown
Apparent Right ascension
Unknown
Apparent Declination
Unknown
Sunlit
N/A
Visualization observer readout
Local Sidereal Time
09:00:59
Azimuth
Unknown
Elevation
Unknown
Doppler factor
Unknown
Orbital elements
Apogee altitude
2,141.52 km
Perigee altitude
799.834 km
Semi-major axis
7,848.814 km
Eccentricity
0.08547
Inclination
56.1546°
RAAN
326.8501°
Arg. of periapsis
132.0945°
True anomaly
227.99541°
Mean anomaly
235.5929°
Eccentric anomaly
231.74727°
Mean motion
3.12131 °/min
Orbital period
115.34 mins
BSTAR
-0.0001735
Loading maneuver chart data...
Computing Atmospheric mass density...

Documentation

Showing up to 5 results
|